Flag for Liechtenstein Weather past 2 weeks in Vaduz, Liechtenstein

Now
43 °F

Quite cool.


Feels Like: 39 °F
Forecast: 36 / 45 °F
Wind: 7 mph from North

Location: Vaduz

Current Time: Apr 1, 2015 at 5:12:08 AM

Latest Report: Apr 1, 2015 at 4:00 AM


Visibility: N/A

Pressure: 30.09 "Hg

Humidity: 64%

Dew point: 32 °F

Location of VaduzLocation

Historic Weather in Vaduz — Graph

°F

Vaduz temperature yesterday

Maximum temperature yesterday: 68 °F (at 1:00 PM)
Minimum temperature yesterday: 43 °F (at 3:00 AM)
Average temperature yesterday: 51 °F

Past Weeks' High & Low Weather Summary

 TemperatureHumidityPressure
High68 °F (Mar 31, 1:00 PM)96% (Mar 25, 11:00 PM)30.33 "Hg (Mar 25, 11:00 PM)
Low35 °F (Mar 28, 6:00 AM)26% (Mar 28, 2:00 PM)29.50 "Hg (Mar 25, 1:00 PM)
Average49 °F65%30.00 "Hg
* Reported Mar 17 2:00 AM — Apr 1 3:00 AM, Vaduz, Weather by CustomWeather, © 2015

Note: Actual official high and low records may vary slightly from our data, if they occured in-between our weather recording intervals... More about our weather records

Advertising

Vaduz weather history for previous 24 hours

 ConditionsComfort  
Time TempWeatherWind HumidityBarometerVisibility
3:00 AM
Wed, Apr 1
48 °FCool.7 mph37%30.06 "HgN/A
2:00 AM46 °FFog.7 mph46%30.08 "Hg4 mi
1:00 AM47 °FCool.10 mph52%30.06 "HgN/A
12:00 AM45 °FCool.5 mph67%30.05 "HgN/A
11:00 PM
Tue, Mar 31
44 °FRain. Overcast.6 mph82%30.05 "Hg5 mi
10:00 PM46 °FCool.22 mph70%30.04 "HgN/A
9:00 PM51 °FCool.10 mph55%29.95 "HgN/A
8:00 PM51 °FRain. Overcast.18 mph53%29.96 "Hg4 mi
7:00 PM49 °FCool.15 mph72%29.91 "HgN/A
6:00 PM52 °FCool.12 mph75%29.86 "HgN/A
5:00 PM60 °FFog.14 mph38%29.78 "Hg6 mi
4:00 PM62 °FMild.12 mph36%29.75 "HgN/A
3:00 PM66 °FMild.7 mph30%29.70 "HgN/A
2:00 PM66 °FPartly sunny.7 mph30%29.71 "Hg7 mi
1:00 PM68 °FMild.6 mph29%29.68 "HgN/A
12:00 PM58 °FRefreshingly cool.6 mph52%29.71 "HgN/A
11:00 AM53 °FScattered clouds.15 mph62%29.75 "Hg7 mi
10:00 AM49 °FCool.8 mph68%29.80 "HgN/A
9:00 AM47 °FCool.9 mph71%29.83 "HgN/A
8:00 AM46 °FFog.8 mph71%29.82 "Hg7 mi
7:00 AM45 °FQuite cool.15 mph77%29.83 "HgN/A
6:00 AM45 °FQuite cool.14 mph77%29.89 "HgN/A
Weather by CustomWeather, © 2015

See weather overviewHow to use our weather pages